Location: Pian di Sc�
(43.6333°N, 11.5500°E)
Time: 13:54:38
(UTC+00:00)

ADEOS II - Pass Details

Date: 07 August 2020
Orbit: 799 x 802 km, 98.5° (Epoch: 24 September)

Event Time Altitude Azimuth Distance (km) Brightness Sun altitude
Rises 02:18:31 0° 7° (N) 3,321 6.1 -17.4°
Reaches altitude 10° 02:20:57 10° 1° (N) 2,386 5.2 -17.1°
Maximum altitude 02:25:53 42° 291° (WNW) 1,126 2.6 -16.5°
Enters shadow 02:28:22 26° 238° (WSW) 1,546 3.0 -16.2°
